This is the latest recevied weather packets stored in our database for station/object SQ7IQO. If no packets are shown the sender has not sent any weather packets the latest 10 day(s).
| Time | Temp. | Humidity | Pressure | Rain* | Wind** | Luminosity | Snow |
|---|---|---|---|---|---|---|---|
| 1787648736 | 20° C | 61% | 1022.3 hPa | 0 mm | 0 m/s | - | - |
| 1787648676 | 20.56° C | 62% | 1022.2 hPa | 0 mm | 0.45 m/s, ° | - | - |
| 1787648616 | 20.56° C | 60% | 1022.2 hPa | 0 mm | 0 m/s | - | - |
| 1787648556 | 20.56° C | 61% | 1022.2 hPa | 0 mm | 0.89 m/s, ° | - | - |
| 1787648496 | 20.56° C | 62% | 1022.2 hPa | 0 mm | 0 m/s | - | - |
| 1787648436 | 20.56° C | 64% | 1022.1 hPa | 0 mm | 0 m/s | - | - |
| 1787648376 | 20° C | 64% | 1022.1 hPa | 0 mm | 0 m/s | - | - |
| 1787648316 | 19.44° C | 62% | 1022.1 hPa | 0 mm | 0 m/s | - | - |
| 1787648256 | 20° C | 63% | 1022.1 hPa | 0 mm | 0.45 m/s, ° | - | - |
| 1787648196 | 20.56° C | 58% | 1022.1 hPa | 0 mm | 0.45 m/s, ° | - | - |
| 1787648136 | 21.11° C | 61% | 1022.1 hPa | 0 mm | 0 m/s | - | - |
| 1787648076 | 21.11° C | 64% | 1022.1 hPa | 0 mm | 0 m/s | - | - |
| 1787648016 | 20.56° C | 62% | 1022.1 hPa | 0 mm | 0 m/s | - | - |
| 1787647956 | 20.56° C | 66% | 1022.2 hPa | 0 mm | 0 m/s | - | - |
| 1787647896 | 20.56° C | 66% | 1022.2 hPa | 0 mm | 0 m/s | - | - |
| 1787647836 | 20° C | 64% | 1022.1 hPa | 0 mm | 0 m/s | - | - |
| 1787647776 | 19.44° C | 66% | 1022.2 hPa | 0 mm | 0 m/s | - | - |
| 1787647716 | 20° C | 62% | 1022.1 hPa | 0 mm | 0 m/s | - | - |
| 1787647656 | 20° C | 62% | 1022.1 hPa | 0 mm | 0 m/s | - | - |
| 1787647596 | 20.56° C | 61% | 1022.1 hPa | 0 mm | 0.45 m/s, ° | - | - |
| 1787647536 | 20.56° C | 62% | 1022.2 hPa | 0 mm | 0 m/s | - | - |
| 1787647476 | 20.56° C | 62% | 1022.2 hPa | 0 mm | 0 m/s | - | - |
| 1787647416 | 20.56° C | 59% | 1022.2 hPa | 0 mm | 0 m/s | - | - |
| 1787647356 | 21.67° C | 60% | 1022.1 hPa | 0 mm | 0.45 m/s, ° | - | - |
| 1787647296 | 21.67° C | 59% | 1022.1 hPa | 0 mm | 0 m/s | - | - |
* Rain latest hour (hover to see other rain measurements)
** Current wind speed in m/s (hover to see current wind gust speed)